Regional Weather Roundup
Issued by NWS

Home | Current Version | Previous Version | Text Only | Print | Product List | Glossary Off
Versions: 1 2 3 4 5 6 7 8 9 10 11 12 13 14 15 16 17 18 19 20 21 22 23 24 25 26 27 28 29 30 31 32 33 34 35 36 37 38 39 40 41 42 43 44 45 46 47 48 49 50

000
ASUS43 KFSD 221202
RWRSD

WEATHER ROUNDUP FOR SOUTH DAKOTA
NATIONAL WEATHER SERVICE SIOUX FALLS SD
700 AM CDT MON MAY 22 2017

NOTE: "FAIR" INDICATES FEW OR NO CLOUDS BELOW 12,000 FEET WITH NO
SIGNIFICANT WEATHER AND/OR OBSTRUCTIONS TO VISIBILITY.


SDZ001>005-009-010-012>017-221300-
NORTHWEST AND NORTH CENTRAL SOUTH DAKOTA

CITY           SKY/WX    TMP DP  RH WIND       PRES   REMARKS
BUFFALO          N/A     43  41  93 W8        29.93S
FAITH            N/A     47  47 100 W12       29.96F
MOBRIDGE       CLOUDY    53  43  68 NW12      29.87R
$$

SDZ012>016-024>037-041>051-057-063-072>074-221300-
SOUTHWEST AND SOUTH CENTRAL SOUTH DAKOTA

CITY           SKY/WX    TMP DP  RH WIND       PRES   REMARKS
RAPID CTY ARPT MOCLDY    46  42  86 N12       30.00F
PIERRE         CLOUDY    47  42  83 W8        29.92R
CUSTER         CLOUDY    44  33  65 NW6       30.05S
ELLSWORTH AFB  MOCLDY    47  44  90 N12       30.00F
PHILIP         RAIN      49  46  90 NW15      29.98S
PINE RIDGE     MOCLDY    40  39  97 W5        30.03F
SPEARFISH      FAIR      48  41  76 W9        30.04S
WINNER         FAIR      49  42  77 W10       29.95F
$$

SDZ004>011-016>023-039-040-221300-
NORTHEAST SOUTH DAKOTA

CITY           SKY/WX    TMP DP  RH WIND       PRES   REMARKS
ABERDEEN       CLEAR     37  35  92 CALM      29.89R
WATERTOWN      SUNNY     38  36  92 CALM      29.87S
BROOKINGS      SUNNY     43  41  93 CALM      29.89R
SISSETON         N/A     41  39  93 N5        29.88S
$$

SDZ017-020-022-023-036>040-048>070-221300-
SOUTHEAST SOUTH DAKOTA

CITY           SKY/WX    TMP DP  RH WIND       PRES   REMARKS
SIOUX FALLS    PTCLDY    49  45  86 W3        29.89R
HURON          CLEAR     46  42  86 W7        29.87F
MITCHELL       CLEAR     48  44  86 W10       29.90F
YANKTON          N/A     52  46  80 S6        29.93R
$$

ABBREVIATIONS USED IN REMARKS
   TC - TEMPERATURE IN CELSIUS
  WCI - WIND CHILL INDEX
   HX - HEAT INDEX
  VSB - VISIBILITY





USA.gov is the U.S. government's official web portal to all federal, state and local government web resources and services.